Regional Weather Roundup
Issued by NWS Newport/Morehead, NC

Current Version | Previous Version | Graphics & Text | Print | Product List | Glossary Off
Versions: 1 2 3 4 5 6 7 8 9 10 11 12 13 14 15 16 17 18 19 20 21 22 23 24 25 26 27 28 29 30 31 32 33 34 35 36 37 38 39 40 41 42 43 44 45 46 47 48 49 50

000
ASUS42 KMHX 250825
RWRMHX
WEATHER ROUNDUP FOR EASTERN NORTH CAROLINA
NATIONAL WEATHER SERVICE NEWPORT/MOREHEAD CITY NC
400 AM EDT MON JUL 25 2016

NOTE: "FAIR" INDICATES FEW OR NO CLOUDS BELOW 12,000 FEET
WITH NO SIGNIFICANT WEATHER AND/OR OBSTRUCTIONS TO VISIBILITY

NCZ015>017-031-032-045>047-102-103-250900-
NORTH COAST

CITY           SKY/WX    TMP DP  RH WIND       PRES   REMARKS
EDENTON        PTCLDY    81  81 100 SW10G16   30.03R
ELIZABETH CITY CLOUDY    78  76  93 SW8       30.02R
KITTY HAWK     SUNNY     80  76  88 SW12G18   30.01S
MANTEO           N/A     79  79  99 SW14      30.03S

$$

NCZ045>047-081-094-103-104-250900-
CENTRAL COAST

CITY           SKY/WX    TMP DP  RH WIND       PRES   REMARKS
FRISCO         CLEAR     82  77  84 W8        30.04S

$$

NCZ095-097-098-100-101-250900-
SOUTHERN COAST

CITY           SKY/WX    TMP DP  RH WIND       PRES   REMARKS
BEAUFORT       PTCLDY    82  76  81 SW12      30.05S
CEDAR ISLAND   NOT AVBL
JACKSONVILLE   CLEAR     78  75  90 S5        30.04S
PINEY ISLAND   NOT AVBL
WILMINGTON     PTCLDY    79  76  90 S3        30.04F


$$

NCZ011>013-027>030-043-044-078>080-089-090>093-098-250900-
COASTAL PLAIN

CITY           SKY/WX    TMP DP  RH WIND       PRES   REMARKS
AHOSKIE        CLEAR     75  74  98 S5        30.02R
CLINTON        CLEAR     77  77 100 CALM      30.04S
ELIZABETHTOWN  PTCLDY    78  78  99 S5        30.04S
GOLDSBORO      MOCLDY    79  79 100 S6        30.01S
GREENVILLE     CLEAR     77  77 100 SW8       30.04R
HAVELOCK       CLEAR     77  74  90 SW3       30.05S
KENANSVILLE    NOT AVBL
KINSTON        MOCLDY    78  76  94 S7        30.04S
NEW BERN       CLEAR     78  75  90 S6        30.05S
RICHLANDS      CLEAR     76  75  97 S5        30.05S
ROCKY MOUNT    CLEAR     77  76  96 SW5       30.02R
WASHINGTON     CLEAR     77  74  92 S6        30.03S
WHITEVILLE     PTCLDY    78  76  94 S3        30.04S

$$

AMZ130-135-150-152-154-156-158-170-250-252-270-ANZ085-086-088-633-658-670-250900-
MARINE OBSERVATIONS

STATION/POSITION TIME  TEMP    WIND        PRES    WAVE   SWELL
                       AIR SEA DIR/SP/G            HT/PER HT/PER
                 (UTC) (F)     (DEG/KT/KT) (MB)    (FT/S) (FT/S)
CHESAPEAKE LIGHT NOT AVBL
64 E VA BEACH    0750   82 81  240/ 16/ 19 1015.8    3/ 5   2/ 9
DUCK             0800   81 61  230/ 13/ 17 1016.0
2 E DUCK         0711      66                N/A     1/ 8
OREGON INLET     0800   83 85  220/ 16/ 21 1016.6
13E OREGON INLT  0700      82                N/A     2/ 4   2/ 9
HATTERAS CG      0800   81 84  230/  6/  9 1016.9
DIAMOND BUOY     0750   84 85  240/ 14/ 16 1017.3    3/ 4   2/ 8
CAPE LOOKOUT     0800   83     220/  7/  9 1017.2
BEAUFORT LAB     0800   83 84  220/  6/  8 1016.8
30 SE NEW RVR IN 0808   84 85  230/ 12/ 17 1017.4
30 SE NEW RVR IN 0725      85                N/A     3/ 4
27 SE WRIGHTSVLE 0808   84 85  220/ 12/ 14 1017.5
5 SE WRIGHTSVLE  0808   83 84  240/  8/ 12 1018.1
225 S CAPE HAT   0750   83 84  200/  8/ 10 1018.7    2/ 8   2/ 8
41 SE CHARLESTON 0750   85 86  200/ 12/ 14 1016.9    2/ 8   2/ 8

$$




USA.gov is the U.S. government's official web portal to all federal, state and local government web resources and services.